Theta_e
319 320 322 323 330 330 333 334 333 339 339 338 339 343 345 344 342 342 345 336 337 342 339 334 334 333 329 328 328 324 322 324 324 323 320 318 320 322 323 324 323 323 322 322 323 325 327 329 337
319 320 322 322 331 333 332 331 335 333 330 330 338 340 341 346 350 345 340 333 337 342 338 335 335 334 332 331 329 325 320 321 322 320 319 320 321 323 323 324 324 323 323 323 323 323 325 327 333
320 320 322 327 329 332 332 330 332 330 329 330 342 343 344 350 349 342 331 334 342 341 337 337 336 335 335 332 330 326 321 322 321 319 320 321 322 324 324 324 323 322 322 323 323 322 323 325 326
320 320 320 328 333 330 329 330 329 330 331 330 342 346 347 350 353 345 329 334 341 340 337 337 337 336 336 335 333 329 323 322 321 319 322 323 323 324 324 324 323 321 321 322 323 323 322 322 323
320 320 326 329 331 327 326 327 327 330 329 331 344 345 353 352 350 346 332 334 338 339 337 337 338 338 337 337 335 334 329 323 322 319 321 323 324 324 323 324 323 321 321 321 322 322 322 322 322
319 319 326 331 330 328 326 326 327 329 330 337 342 346 353 352 351 345 335 336 339 339 338 338 338 338 339 339 337 335 334 329 324 322 320 320 321 322 323 324 323 322 322 321 321 321 321 320 321
321 320 327 328 331 330 328 326 328 329 330 342 345 347 353 352 352 348 338 338 340 340 340 340 340 339 338 339 339 338 336 334 328 324 322 321 320 321 323 324 324 321 322 322 321 320 320 319 319
319 321 323 325 330 332 326 324 324 329 335 347 347 349 353 351 351 347 344 340 339 340 340 340 340 340 338 337 339 339 338 336 334 330 326 322 322 321 321 322 322 321 322 322 322 321 321 320 319
317 322 324 325 325 330 322 326 327 334 344 349 349 349 348 350 351 347 347 341 339 341 340 341 341 340 338 335 336 338 339 339 337 335 332 327 323 321 321 321 321 321 321 322 323 322 321 321 321
320 322 323 321 321 324 323 326 328 333 348 351 352 350 351 351 351 348 344 338 336 340 340 341 341 340 337 335 335 337 338 338 337 335 332 330 327 323 321 321 321 321 322 322 322 323 323 322 321
319 322 320 319 319 321 323 325 325 333 345 347 352 353 351 350 350 348 341 335 333 336 338 338 338 337 334 332 332 333 335 335 336 334 332 330 329 326 322 321 321 321 322 322 322 322 323 326 327
320 318 319 319 319 320 323 324 327 327 329 338 352 353 351 347 345 344 338 338 334 333 334 335 336 334 332 330 329 329 331 331 332 332 332 330 328 326 324 321 321 321 321 321 322 323 328 338 336
319 320 318 320 320 320 321 323 327 327 332 349 351 351 351 348 346 343 340 336 333 332 333 333 334 333 331 330 329 329 327 329 330 331 330 330 328 326 325 324 322 320 321 321 326 331 332 336 340
319 319 319 319 320 319 322 323 327 327 340 349 350 350 350 349 345 341 337 335 338 337 337 336 335 333 332 330 329 328 327 327 327 327 327 327 327 328 328 327 324 323 323 322 323 329 336 337 338
317 320 319 319 319 321 321 324 327 327 341 347 349 350 350 350 349 348 348 348 347 348 347 347 342 338 335 333 331 330 329 328 328 330 336 338 333 338 342 343 344 344 344 341 334 332 335 338 340
318 319 321 321 320 320 321 329 325 327 330 341 344 343 345 346 342 343 341 345 345 348 348 349 345 341 338 335 333 331 330 330 330 340 344 345 345 344 344 346 346 346 346 346 346 345 340 340 342
319 317 320 320 320 321 322 324 324 326 327 328 328 328 331 329 328 328 331 335 340 346 347 345 343 342 340 337 335 333 334 333 337 344 346 347 347 346 346 346 346 348 347 345 344 344 345 345 343
317 318 318 320 319 321 322 324 324 326 327 328 328 328 328 327 327 326 326 327 330 336 343 343 342 341 341 339 336 341 341 341 342 342 340 342 343 346 344 344 344 342 341 338 342 342 342 342 342
315 317 317 318 319 322 323 324 328 325 327 327 328 327 328 326 326 327 327 327 332 335 339 341 340 340 340 342 342 341 339 337 334 336 336 335 344 347 343 344 343 341 338 336 338 339 341 335 332
313 316 316 317 320 321 325 325 327 327 328 328 327 327 327 326 327 326 326 327 332 337 340 341 341 340 341 341 339 337 337 337 336 337 339 341 342 345 344 344 343 340 337 338 338 340 341 338 335
314 313 315 317 320 321 323 323 325 327 327 327 326 327 327 328 327 326 327 326 329 335 340 341 341 342 341 339 337 337 335 337 338 339 342 343 344 343 343 343 342 338 337 338 338 336 336 337 337
315 314 314 314 319 320 323 322 323 326 328 328 327 327 327 327 327 325 325 326 329 336 340 341 340 339 337 337 337 336 336 338 338 338 338 340 340 341 340 339 338 338 337 336 336 335 336 336 336
314 314 315 315 315 317 323 321 322 323 324 325 327 326 326 327 326 324 324 327 328 334 338 335 335 336 336 334 335 334 334 336 336 336 335 335 332 330 329 329 330 332 333 334 335 335 336 336 337
314 315 316 316 318 317 317 319 319 321 324 325 325 326 325 325 325 326 327 327 328 329 330 331 334 335 336 335 333 333 334 334 332 329 326 322 320 318 317 317 318 319 319 320 322 325 329 332 333
314 316 317 317 317 317 317 322 319 323 323 323 323 323 322 323 324 325 327 328 328 328 329 331 334 333 333 330 328 328 326 325 324 321 317 314 312 312 312 312 312 312 311 312 313 314 315 317 323
315 315 315 316 317 317 319 317 318 320 321 324 324 323 319 320 323 325 328 329 330 330 332 334 333 329 324 325 323 318 316 315 314 313 313 315 315 315 315 315 314 314 313 310 310 309 310 311 312
313 315 316 319 318 317 318 320 320 325 326 326 326 322 319 319 323 327 333 330 332 333 334 329 325 321 321 321 319 317 316 314 313 314 315 316 316 316 316 314 313 312 311 309 309 309 308 308 308
314 315 315 317 318 317 319 321 318 324 324 326 328 325 321 323 328 332 335 333 335 335 330 326 321 320 320 319 318 317 317 317 317 317 317 316 316 316 315 313 312 311 310 309 308 308 307 307 308
315 315 315 317 319 318 319 322 325 326 327 328 328 324 322 327 332 335 335 335 336 333 327 321 321 319 319 319 318 317 317 317 317 317 317 317 316 315 313 312 311 310 309 309 309 308 307 306 306
315 316 317 317 320 320 323 319 326 327 326 326 325 322 325 332 334 335 333 335 332 324 322 321 320 320 319 319 318 317 317 317 317 317 317 316 315 313 312 311 310 310 309 309 308 308 307 306 304
Wind_Speed
7 7 5 4 3 3 4 3 1 5 3 2 3 1 2 4 2 3 9 23 30 30 29 26 22 19 17 15 13 13 14 15 14 13 14 16 18 16 14 12 11 10 10 10 9 8 7 7 7
5 6 2 1 4 6 5 2 6 3 3 8 1 5 4 4 5 9 21 24 31 32 30 27 23 19 16 14 12 11 13 15 15 15 16 17 17 15 13 11 10 9 9 8 7 6 5 5 4
4 3 2 3 3 9 4 5 4 6 8 3 4 4 3 4 6 15 18 26 33 31 29 26 23 19 16 13 11 11 14 15 16 16 17 17 15 13 11 10 9 8 7 6 6 5 4 3 3
4 3 2 5 11 8 2 7 4 8 3 6 6 7 7 3 4 9 25 28 31 31 29 26 22 19 16 13 11 10 11 13 14 15 15 15 13 12 9 8 7 6 6 5 4 3 3 2 2
8 4 4 6 13 3 5 7 8 7 3 3 7 8 4 5 7 15 27 30 30 31 29 26 22 19 17 13 11 10 10 10 12 12 13 12 11 10 9 7 6 5 5 4 4 3 2 2 2
7 3 5 14 13 9 5 9 7 3 4 4 7 7 5 5 11 24 27 30 29 29 28 26 23 20 18 16 13 11 10 10 11 11 11 12 11 10 9 8 6 5 4 3 3 2 2 3 3
7 4 14 9 16 11 6 3 6 1 3 2 1 5 9 9 15 22 29 30 31 28 28 26 23 21 18 17 15 14 12 11 11 12 13 14 14 13 11 9 7 6 5 4 4 4 3 3 4
9 3 10 10 14 20 6 3 6 2 1 1 4 4 6 15 17 22 26 30 30 28 27 26 24 22 20 18 17 16 15 13 12 11 11 12 13 14 13 12 10 8 7 6 6 6 5 5 6
11 7 14 17 11 10 6 7 3 3 3 2 5 4 7 18 20 26 27 31 31 30 28 27 24 22 19 18 18 17 16 14 13 12 11 11 11 11 12 12 12 11 10 9 8 8 8 8 8
11 13 14 6 5 6 6 7 8 4 7 2 10 12 18 20 22 27 28 31 29 29 28 26 23 21 20 20 19 18 17 16 15 13 12 11 10 10 10 11 12 12 11 11 10 10 11 11 11
11 16 7 7 6 4 4 6 4 7 7 9 14 24 24 26 26 26 27 27 27 27 26 25 23 21 20 19 18 18 18 17 16 14 13 11 11 10 11 10 11 12 12 11 12 12 13 14 14
12 11 14 5 4 4 2 1 5 5 1 6 15 21 26 27 27 26 27 25 26 27 26 24 24 22 20 19 17 16 16 15 15 13 13 12 11 10 10 11 12 12 12 12 13 14 14 13 12
16 14 11 9 1 3 1 3 3 7 6 13 19 16 20 23 24 24 24 24 24 24 23 22 22 21 20 20 19 18 14 15 14 13 12 12 11 10 11 11 12 12 13 12 12 12 14 15 14
17 10 15 7 10 1 3 3 3 6 14 17 19 18 17 19 22 23 24 24 20 21 21 21 21 19 19 18 16 16 13 13 11 12 11 11 10 9 11 12 12 12 13 14 14 14 16 17 18
11 16 9 9 6 5 4 3 6 9 16 19 18 18 18 18 18 16 17 19 16 18 21 19 17 20 19 19 16 16 14 15 13 10 8 8 9 7 8 9 9 10 12 13 14 14 16 18 19
11 13 15 16 13 4 10 22 9 11 14 17 19 17 18 19 17 16 15 17 15 17 16 16 16 16 18 19 17 16 15 14 12 8 9 10 9 10 10 10 11 12 14 16 16 17 20 22 21
10 15 22 13 18 8 10 9 11 12 14 13 16 17 16 14 12 11 14 15 17 18 18 17 14 15 16 17 15 14 14 14 11 12 10 12 12 12 14 15 13 14 17 20 20 23 24 24 24
24 15 18 18 11 17 13 6 9 14 12 13 12 10 13 15 12 9 9 11 17 22 23 20 18 15 13 13 14 12 9 10 10 12 8 10 14 13 15 14 15 15 15 19 20 22 24 24 25
19 18 11 13 6 12 14 11 6 13 11 13 10 11 10 11 9 10 9 8 11 16 20 20 16 15 14 14 15 16 17 15 12 13 16 15 12 13 16 16 17 17 17 18 21 22 23 26 26
14 19 14 11 10 11 10 14 5 9 14 16 15 14 14 12 9 9 10 12 12 16 18 18 15 12 14 15 16 15 14 17 18 16 17 14 13 13 14 15 17 18 21 22 23 24 22 24 27
11 19 22 12 9 3 10 9 9 7 9 11 13 11 11 12 10 10 11 13 16 17 16 14 12 12 13 11 9 9 7 7 5 4 6 7 9 12 15 17 18 22 23 23 24 26 26 27 28
9 10 17 19 12 11 8 12 9 12 12 11 16 13 15 14 13 12 13 14 15 16 15 13 13 13 10 8 6 4 3 3 3 7 8 10 13 13 13 13 15 17 20 21 23 25 26 25 25
5 6 13 16 15 9 10 8 14 6 17 17 15 17 19 18 20 17 16 18 16 14 14 13 10 9 6 4 1 2 2 4 8 9 11 10 9 9 10 11 12 13 14 15 16 16 16 19 21
7 6 8 6 6 11 14 14 13 15 13 10 13 16 17 20 24 23 20 19 17 14 11 9 9 8 5 3 4 4 6 9 9 10 10 10 10 11 14 15 16 16 16 17 17 17 15 14 15
14 14 7 8 7 6 8 8 10 8 9 11 13 9 11 16 22 26 25 23 22 19 13 12 9 7 7 8 10 11 12 10 8 8 9 10 12 14 14 17 19 22 23 22 21 20 19 19 18
17 17 6 7 9 8 5 9 6 10 4 5 9 10 11 17 22 31 30 25 24 21 19 15 9 10 10 8 10 11 10 9 8 10 11 12 12 14 17 20 23 26 28 25 23 22 21 20 20
19 12 5 5 2 7 6 3 4 4 7 6 7 9 14 19 24 27 28 28 28 25 20 16 15 12 11 10 9 8 9 8 8 9 10 12 15 17 19 22 25 28 26 24 22 22 22 23 23
16 15 8 2 8 6 5 4 6 11 11 7 6 7 10 15 20 24 26 30 29 26 23 20 16 14 14 13 9 5 5 4 6 9 11 14 17 20 22 25 28 28 27 26 26 26 25 25 25
13 12 5 3 1 7 4 3 5 7 4 5 8 10 7 14 20 23 25 28 29 27 23 20 17 16 16 13 9 4 1 3 6 9 12 15 19 21 23 27 29 27 28 28 30 31 32 32 32
13 15 9 9 8 1 1 2 2 4 2 6 10 8 5 13 21 25 26 30 28 24 24 21 18 16 14 10 7 5 6 8 10 12 16 19 21 23 26 29 28 29 31 32 34 36 38 39 39
Wind_Direction
277 291 310 301 244 253 240 221 258 189 188 120 62 171 157 61 43 36 142 161 168 167 162 158 157 152 149 151 147 148 156 161 157 154 147 142 140 135 133 130 126 123 123 122 123 119 113 114 117
268 282 273 180 238 211 214 218 220 164 334 310 192 218 186 82 61 116 142 153 167 166 162 160 158 156 151 149 147 142 151 155 154 152 148 147 144 141 139 137 132 130 128 126 127 125 124 119 129
250 240 211 229 205 214 217 162 226 292 307 232 128 73 95 54 75 139 157 155 165 165 164 161 161 159 153 150 144 138 147 152 152 153 153 152 149 148 145 142 139 138 136 133 133 137 145 142 153
205 162 95 229 209 222 270 152 280 320 78 173 148 113 90 73 143 161 154 157 165 165 165 163 163 161 159 160 151 140 143 152 154 158 158 159 159 156 155 153 150 147 147 146 144 150 164 174 191
200 159 198 223 230 243 250 256 291 311 297 285 178 123 83 81 145 157 156 162 168 167 166 165 166 166 166 171 166 157 147 148 158 164 169 172 174 174 174 174 174 168 164 163 168 175 189 211 239
184 191 192 215 221 232 239 258 268 287 331 317 171 109 105 125 154 153 161 164 170 169 168 169 169 172 174 179 180 178 167 157 159 169 181 187 195 197 196 198 199 193 186 184 198 210 230 239 249
210 195 201 211 218 236 218 231 252 244 306 53 40 127 132 154 159 160 164 167 171 174 173 173 174 177 182 185 187 190 187 179 175 176 187 194 201 204 205 211 219 221 212 213 225 235 236 240 247
202 210 199 208 205 222 179 234 264 307 159 151 159 184 168 168 159 158 163 167 171 176 180 180 181 183 186 191 195 197 196 196 194 190 193 200 206 209 210 215 218 227 235 231 239 248 253 256 256
177 210 209 204 188 198 169 196 171 357 180 125 192 162 171 160 160 162 164 165 171 178 183 187 189 189 192 199 202 204 205 207 209 210 209 212 215 217 219 222 225 227 236 241 246 257 263 267 268
196 211 208 191 189 163 165 195 164 184 154 151 122 140 145 155 159 165 165 168 176 184 188 193 194 196 200 204 205 207 209 215 219 221 222 226 228 231 233 234 237 242 246 254 260 269 275 276 275
196 215 191 211 176 167 151 162 179 173 204 213 186 153 154 155 161 168 172 178 181 188 191 193 197 200 204 209 210 212 214 219 223 226 228 231 237 244 246 247 249 251 255 264 271 275 280 283 281
196 204 191 173 167 138 145 106 159 204 229 216 175 156 155 159 166 171 176 179 183 189 193 196 198 201 204 209 212 216 220 224 229 235 239 243 248 256 263 261 260 264 264 269 274 279 281 280 288
209 182 186 203 111 118 200 75 178 135 134 139 153 160 166 167 169 175 177 177 182 190 195 199 204 205 209 211 210 213 221 225 231 237 245 254 262 269 275 279 280 277 276 275 279 285 282 278 284
187 188 187 190 209 146 143 73 256 137 145 147 159 171 175 174 175 176 179 179 186 192 198 203 206 210 218 223 219 220 227 234 234 240 248 258 268 278 284 287 289 291 289 284 283 284 281 281 283
176 198 176 192 180 196 145 209 217 143 154 154 165 172 177 176 180 193 194 195 199 203 204 209 216 214 220 225 224 226 227 235 236 247 269 279 277 283 289 297 303 309 308 306 300 292 290 290 291
172 200 202 190 184 191 190 203 200 161 149 165 169 177 184 193 197 201 202 205 203 203 203 202 219 222 228 229 231 236 241 251 249 246 262 275 277 271 276 285 292 292 297 298 298 299 294 293 294
188 198 205 185 202 168 201 190 207 173 159 163 165 171 177 181 197 211 218 218 216 209 208 210 221 225 231 232 235 244 251 253 247 260 281 288 286 291 289 287 287 286 287 290 294 295 295 295 288
188 193 196 197 184 202 189 189 185 176 176 196 187 189 186 193 197 224 240 225 218 218 223 229 236 236 237 233 230 241 256 263 245 250 277 300 279 272 278 285 289 290 291 292 295 294 294 293 290
201 196 189 198 187 183 194 187 205 173 178 183 194 193 211 208 203 206 218 230 205 207 216 225 226 235 239 236 244 246 260 250 247 269 281 282 283 266 274 279 281 285 286 287 285 287 292 292 293
180 192 194 179 160 188 175 187 205 195 191 194 193 196 208 216 203 208 212 221 220 209 208 214 219 220 232 234 255 252 256 261 277 293 296 292 287 276 280 284 287 286 287 284 286 289 291 288 288
183 194 192 166 163 104 153 190 201 222 238 215 202 216 223 223 212 215 230 224 229 226 218 218 215 225 234 245 256 257 250 244 260 311 326 329 311 301 295 290 282 284 287 286 284 283 282 282 282
141 189 181 194 177 192 214 209 213 194 204 226 221 224 226 229 237 229 234 229 232 229 224 225 226 230 235 235 233 223 215 239 62 38 13 359 341 328 315 305 298 292 292 290 287 284 280 279 281
145 167 159 184 198 193 191 225 198 204 221 215 218 220 223 221 219 220 225 226 230 227 220 226 228 217 200 182 98 330 346 52 42 31 14 20 24 20 14 3 355 345 335 318 307 299 294 288 284
173 128 89 109 150 200 203 220 212 213 214 214 225 226 221 222 217 214 213 218 225 213 206 194 177 154 132 82 63 46 49 62 56 50 38 34 20 12 7 1 353 345 338 334 333 329 321 313 300
187 178 153 177 195 196 179 199 235 203 206 224 223 230 226 219 210 213 210 208 206 206 193 173 166 142 100 89 87 76 72 68 52 44 30 19 17 16 8 0 354 347 336 325 319 316 314 311 306
180 183 178 178 182 167 160 220 212 224 186 227 249 247 231 214 203 204 204 203 197 188 175 169 161 141 123 106 94 76 52 41 53 56 37 23 14 4 357 350 346 341 339 329 314 308 305 301 298
187 198 148 106 97 171 188 191 233 210 220 230 226 230 226 213 204 198 195 196 187 177 171 165 150 139 130 130 109 80 57 40 31 11 4 360 353 348 345 342 339 336 332 326 317 310 306 303 301
179 183 194 200 173 177 172 231 235 199 212 243 264 253 226 210 198 188 185 182 176 171 163 155 152 142 146 147 134 110 72 43 354 341 337 336 334 333 332 333 332 330 327 328 328 327 321 314 306
156 174 189 179 269 192 199 200 214 195 176 269 294 300 244 198 189 180 173 172 170 164 157 161 160 160 166 170 168 166 277 286 298 310 314 315 316 316 320 324 325 323 322 320 320 319 318 314 309
173 182 173 188 193 219 1 244 143 160 276 286 290 294 229 188 177 169 165 167 162 164 165 167 172 175 181 187 200 226 256 273 287 298 302 304 305 310 315 319 319 317 316 315 313 312 310 308 304